World > North America > United States > Texas

Hebbronville, Texas Regional Weather

Lat: 27.32N, Lon: 98.69W
Wx Zone: TXZ249Web Search
Hebbronville Weather Warning NWS WEATHER ALERT FOR THE HEBBRONVILLE, TX AREA - Issued: 408 PM CDT Thu Apr 15 2021 Hebbronville Weather Warning  

Helpful Tip: Type the letters wx in the search engine next time you need to find us.

Feedback


°F Click to change Hebbronville hourly weather to Imperial units.Click to change Hebbronville hourly weather to Metric units. °C
Hebbronville Weather Map
UTC Time: 4/16/2021, 07:25
Your Time:

Hebbronville, TX Regional Weather

Expires:202104160800;;627791
ASUS44 KSJT 160715
RWRSJT
WEST CENTRAL TEXAS REGIONAL WEATHER ROUNDUP
NATIONAL WEATHER SERVICE SAN ANGELO TX
200 AM CDT FRI APR 16 2021

NOTE: "FAIR" INDICATES FEW OR NO CLOUDS BELOW 12,000 FEET WITH NO
SIGNIFICANT WEATHER AND/OR OBSTRUCTIONS TO VISIBILITY.


TXZ229-232-234-239-242-243-245-247-249-250-
253-255-257-343-347-443-160800-
TEXAS COASTAL BEND, RIO GRANDE PLAINS DEEP SOUTH TEXAS
  
CITY           SKY/WX    TMP DP  RH WIND       PRES   REMARKS
VICTORIA       CLOUDY    69  66  90 NE8       29.83S FOG              
BEEVILLE       CLOUDY    71  71 100 E5        29.81F FOG              
ROCKPORT       CLOUDY    72  71  97 E10       29.80R FOG              
PORT ARANSAS   CLOUDY    72  71  97 E6        29.81R FOG              
PORT LAVACA    CLOUDY    73  68  84 E10       29.83S                  
CORPUS CHRISTI CLOUDY    73  72  96 E7        29.78S                  
KINGSVILLE NAS LGT RAIN  75  72  90 SE3       29.77F FOG              
COTULLA        CLOUDY    70  67  90 E10       29.81F FOG              
LAREDO         CLOUDY    75  71  87 E9        29.78S                  
BROWNSVILLE    CLOUDY    77  73  87 SE9       29.75F                  
PORT ISABEL    CLOUDY    77  73  87 SE12      29.76F                  
HEBBRONVILLE   CLOUDY    72  65  79 SE7       29.80S HAZE             
MCALLEN        CLOUDY    77  72  84 E9        29.75F                  
WESLACO        NOT AVBL                                               
FALFURRIAS     CLOUDY    71  71 100 CALM      29.77S             

SKY/WX - Weather  TMP - Temperature  DP - Dew Point  RH - Relative Humidity
WIND - Wind Direction/Speed PRES - Barometric Pressure VSB - Visibility
WCI - Wind Chill Index E13G22 Wind - East Wind 13 mph/Gusts of 22 mph